This demonstration page uses our WeatherBlox Daily Observations layout. Learn more.

Left ArrowRight Arrow

47.50024, -111.30081

Hourly Observations for January 7, 2020

Temp ( °F °C ) Dew Point ( °F °C ) Humidity (%) Winds ( mph kmh ) Pressure ( in mb ) Visibility ( mi km ) Precip ( " mm )
12:53 am 00:53 Mostly Cloudy 30 -1.1 23 -5 75 75 SSE 5 7 30.02 1017 10 16 0.00 0.00
1:53 am 01:53 Clear 33 0.6 23 -5 66 66 SW 9 15 30.01 1016 10 16 0.00 0.00
2:53 am 02:53 Partly Cloudy 36 2.2 25 -3.9 64 64 SW 13 20 30.01 1016 10 16 0.00 0.00
3:53 am 03:53 Clear 36 2.2 25 -3.9 64 64 SW 15 24 30.01 1016 10 16 0.00 0.00
4:53 am 04:53 Partly Cloudy 37 2.8 25 -3.9 62 62 SW 15 24 30.00 1016 10 16 0.00 0.00
5:53 am 05:53 Mostly Cloudy 38 3.3 26 -3.3 62 62 SW 14 22 29.99 1016 10 16 0.00 0.00
6:53 am 06:53 Clear 37 2.8 26 -3.3 65 65 WSW 12 19 29.99 1016 10 16 0.00 0.00
7:53 am 07:53 Mostly Cloudy 39 3.9 26 -3.3 60 60 SW 14 22 29.99 1016 10 16 0.00 0.00
8:53 am 08:53 Mostly Cloudy 40 4.4 27 -2.8 60 60 SW 13 20 30.00 1016 10 16 0.00 0.00
9:53 am 09:53 Cloudy 42 5.6 27 -2.8 55 55 SW 15 24 30.01 1016 10 16 0.00 0.00
10:53 am 10:53 Mostly Sunny 44 6.7 28 -2.2 53 53 SW 16 26 29.98 1015 10 16 0.00 0.00
11:03 am 11:03 Cloudy 44 6.7 28 -2.2 53 53 SW 20 31 29.93 1014 10 16 0.00 0.00
11:53 am 11:53 Cloudy 49 9.4 28 -2.2 44 44 SW 16 26 29.95 1014 10 16 0.00 0.00
12:53 pm 12:53 Cloudy 47 8.3 27 -2.8 46 46 undefined N/A 29.93 1014 10 16 0.00 0.00
1:53 pm 13:53 Cloudy 46 7.8 27 -2.8 47 47 SW 15 24 29.91 1013 10 16 0.00 0.00
2:53 pm 14:53 Cloudy 47 8.3 28 -2.2 48 48 SW 14 22 29.88 1012 10 16 0.00 0.00
3:53 pm 15:53 Sunny 45 7.2 27 -2.8 49 49 SW 16 26 29.88 1012 10 16 0.00 0.00
4:53 pm 16:53 Mostly Clear 43 6.1 25 -3.9 49 49 SW 17 28 29.86 1011 10 16 0.00 0.00
5:53 pm 17:53 Clear 42 5.6 26 -3.3 53 53 SSW 16 26 29.85 1011 10 16 0.00 0.00
6:53 pm 18:53 Clear 39 3.9 25 -3.9 57 57 SW 12 19 29.83 1010 10 16 0.00 0.00
7:53 pm 19:53 Clear 40 4.4 25 -3.9 55 55 SSW 12 19 29.80 1009 10 16 0.00 0.00
8:53 pm 20:53 Mostly Clear 41 5 25 -3.9 53 53 SSW 17 28 29.77 1008 10 16 0.00 0.00
9:53 pm 21:53 Partly Cloudy 40 4.4 25 -3.9 55 55 SSW 16 26 29.75 1007 10 16 0.00 0.00
10:53 pm 22:53 Clear 42 5.6 25 -3.9 51 51 SSW 16 26 29.71 1006 10 16 0.00 0.00
11:53 pm 23:53 Clear 41 5 25 -3.9 53 53 SSW 13 20 29.66 1004 10 16 0.00 0.00

Powered by AerisWeather